U vindt ons ook hier:

Het Weer Aktueel

UK Metoffice

European Weather Network

Weather Underground

Citizen Weather Observer Program (CWOP)



Het weer levert geen direct gevaar op.    Er zijn geen waarschuwingen afgegeven.

Select another period ( hide this area )

Eenheden Periode Custom range Directly to
Metrisch Engels Beide
Dagelijkse Wekelijkse Maandelijkse Jaarlijkse
use both date-selectors for a custom range
previous Dag
With this date

WeatherUnderground graphs for this period ( click here )


Dagelijkse Samenvatting Woensdag 25 november 2020
Tijd Temp. ( °C ) Dew pt. ( °C ) Wind ( km/h ) van Windvlaag ( km/h ) Luchtdruk ( hPa ) Humid.( % ) Rainrate ( cm ) Zonneschijn ( W/m2 )
Hoog6,1 3,3 11,0 ZZO ( 329/560 ) 23,0 1016,4 83 - 26
Gemiddeld4,5 1,8 5,1 ZZO #74/109 11,9 1015,1 82 - 14 #10/109
Laag3,7 1,1 2,0   6,0 1014,4 82 -  
Dagelijkse Tabular details for Woensdag 25 november 2020
Tijd Temp. ( °C ) Dew pt. ( °C ) Wind ( km/h ) van Windvlaag ( km/h ) Luchtdruk ( hPa ) Humid.( % ) Rainrate ( cm ) Zonneschijn ( W/m2 )
00:04 6,1 3,3 10,0 Zuiden 18,0 1016,3 82 - -
00:09 6,1 3,3 8,0 Zuiden 18,0 1016,4 82 - -
00:14 6,1 3,3 8,0 ZZO 15,0 1016,3 82 - -
00:19 5,9 3,1 6,0 ZZO 15,0 1016,2 82 - -
00:24 5,9 3,1 5,0 ZZO 11,0 1016,2 82 - -
00:29 5,8 2,9 5,0 ZZO 10,0 1016,1 82 - -
00:34 5,8 2,9 5,0 ZZO 10,0 1016,0 82 - -
00:39 5,7 2,9 5,0 ZZO 10,0 1016,0 82 - -
00:44 5,6 2,8 5,0 ZZO 10,0 1016,0 82 - -
00:49 5,6 2,8 3,0 ZZO 10,0 1016,0 82 - -
00:54 5,6 2,8 5,0 ZZO 11,0 1015,9 82 - -
00:59 5,4 2,6 5,0 ZZO 13,0 1015,9 82 - -
01:04 5,4 2,6 5,0 ZZO 13,0 1015,8 82 - -
01:09 5,3 2,5 5,0 ZZO 13,0 1015,8 82 - -
01:14 5,3 2,5 6,0 Zuiden 13,0 1015,8 82 - -
01:19 5,3 2,5 8,0 Zuiden 13,0 1015,8 82 - -
01:24 5,3 2,5 6,0 Zuiden 13,0 1015,7 82 - -
01:29 5,3 2,5 6,0 ZZO 13,0 1015,7 82 - -
01:34 5,3 2,5 5,0 ZZO 13,0 1015,5 82 - -
01:39 5,2 2,4 6,0 Zuiden 13,0 1015,5 82 - -
01:44 5,2 2,4 6,0 Zuiden 13,0 1015,5 82 - -
01:49 5,2 2,4 6,0 Zuiden 18,0 1015,4 82 - -
01:54 5,2 2,4 8,0 Zuiden 18,0 1015,3 82 - -
01:59 5,2 2,4 10,0 Zuiden 18,0 1015,4 82 - -
02:04 5,2 2,4 10,0 Zuiden 18,0 1015,4 82 - -
02:09 5,2 2,4 10,0 Zuiden 19,0 1015,4 82 - -
02:14 5,2 2,4 11,0 Zuiden 19,0 1015,4 82 - -
02:19 5,2 2,4 11,0 Zuiden 19,0 1015,4 82 - -
02:24 5,2 2,4 10,0 Zuiden 16,0 1015,3 82 - -
02:29 5,2 2,4 10,0 Zuiden 16,0 1015,4 82 - -
02:34 5,2 2,4 8,0 Zuiden 15,0 1015,4 82 - -
02:39 5,2 2,4 8,0 Zuiden 15,0 1015,3 82 - -
02:44 5,2 2,4 8,0 ZZO 15,0 1015,3 82 - -
02:49 5,2 2,4 6,0 ZZO 15,0 1015,2 82 - -
02:54 5,1 2,3 8,0 ZZO 23,0 1015,2 82 - -
02:59 5,1 2,3 8,0 ZZO 23,0 1015,2 82 - -
03:04 5,1 2,3 6,0 ZZO 23,0 1015,2 82 - -
03:09 5,1 2,3 5,0 ZZO 13,0 1015,1 82 - -
03:14 5,0 2,2 5,0 ZZO 10,0 1015,1 82 - -
03:19 4,9 2,1 5,0 ZZO 13,0 1015,1 82 - -
03:24 4,9 2,1 5,0 ZZO 13,0 1015,1 82 - -
03:29 4,9 2,1 5,0 ZZO 13,0 1015,1 82 - -
03:34 4,8 2,0 5,0 ZZO 13,0 1015,1 82 - -
03:39 4,8 2,0 5,0 Zuiden 11,0 1015,1 82 - -
03:44 4,7 1,9 6,0 Zuiden 13,0 1015,1 82 - -
03:49 4,7 1,9 8,0 Zuiden 13,0 1015,1 82 - -
03:54 4,7 1,9 8,0 Zuiden 13,0 1015,1 82 - -
03:59 4,6 1,8 6,0 Zuiden 13,0 1015,0 82 - -
04:04 4,6 1,8 6,0 Zuiden 11,0 1015,0 82 - -
04:09 4,5 1,7 6,0 Zuiden 11,0 1015,0 82 - -
04:14 4,5 1,7 6,0 ZZO 11,0 1015,0 82 - -
04:19 4,4 1,6 6,0 ZZO 11,0 1014,9 82 - -
04:24 4,4 1,6 6,0 ZZO 11,0 1014,9 82 - -
04:29 4,4 1,6 6,0 ZZO 11,0 1014,9 82 - -
04:34 4,3 1,5 5,0 ZZO 11,0 1014,8 82 - -
04:39 4,3 1,5 5,0 ZZO 11,0 1014,8 82 - -
04:44 4,3 1,5 5,0 ZZO 10,0 1014,8 82 - -
04:49 4,3 1,5 5,0 ZZO 10,0 1014,8 82 - -
04:54 4,3 1,5 5,0 ZZO 10,0 1014,8 82 - -
04:59 4,2 1,4 5,0 ZZO 10,0 1014,8 82 - -
05:04 4,2 1,4 5,0 ZZO 10,0 1014,8 82 - -
05:09 4,2 1,4 5,0 ZZO 10,0 1014,8 82 - -
05:14 4,2 1,4 5,0 Zuiden 10,0 1014,9 82 - -
05:19 4,2 1,4 3,0 Zuiden 10,0 1014,9 82 - -
05:24 4,2 1,4 3,0 Zuiden 6,0 1015,0 82 - -
05:29 4,1 1,3 3,0 ZZO 6,0 1014,9 82 - -
05:34 4,1 1,3 3,0 ZZO 6,0 1014,8 82 - -
05:39 4,1 1,3 2,0 ZZO 6,0 1014,8 82 - -
05:44 4,1 1,3 2,0 ZZO 6,0 1014,9 82 - -
05:49 4,1 1,3 2,0 ZZO 6,0 1014,9 82 - -
05:54 4,0 1,2 3,0 ZZO 8,0 1014,9 82 - -
05:59 3,9 1,1 3,0 ZZO 8,0 1014,9 82 - -
06:04 3,9 1,1 3,0 ZO 8,0 1014,9 82 - -
06:09 3,9 1,1 3,0 ZZO 10,0 1014,8 82 - -
06:14 3,9 1,1 3,0 ZZO 10,0 1014,8 82 - -
06:19 3,9 1,1 3,0 ZZO 10,0 1014,7 82 - -
06:24 3,8 1,2 3,0 ZZO 8,0 1014,7 83 - -
06:29 3,8 1,2 3,0 ZO 8,0 1014,6 83 - -
06:34 3,8 1,2 3,0 ZO 8,0 1014,6 83 - -
06:39 3,8 1,2 3,0 ZO 8,0 1014,6 83 - -
06:44 3,8 1,2 3,0 ZZO 8,0 1014,6 83 - -
06:49 3,8 1,2 3,0 ZZO 8,0 1014,6 83 - -
06:54 3,8 1,2 5,0 ZZO 10,0 1014,6 83 - -
06:59 3,8 1,2 5,0 ZZO 10,0 1014,6 83 - -
07:04 3,8 1,2 3,0 ZZO 10,0 1014,5 83 - -
07:09 3,8 1,2 3,0 ZZO 11,0 1014,6 83 - -
07:14 3,8 1,2 3,0 ZZO 11,0 1014,5 83 - -
07:19 3,8 1,2 3,0 ZZO 11,0 1014,5 83 - -
07:24 3,8 1,2 3,0 ZZO 11,0 1014,5 83 - -
07:29 3,8 1,2 3,0 ZZO 8,0 1014,5 83 - -
07:34 3,8 1,2 3,0 ZZO 8,0 1014,5 83 - -
07:39 3,8 1,2 3,0 ZZO 8,0 1014,4 83 - -
07:44 3,7 1,1 3,0 ZZO 8,0 1014,4 83 - -
07:49 3,7 1,1 3,0 ZZO 13,0 1014,4 83 - -
07:54 3,7 1,1 5,0 ZZO 13,0 1014,4 83 - -
07:59 3,7 1,1 5,0 ZZO 13,0 1014,6 83 - -
08:04 3,7 1,1 5,0 ZZO 11,0 1014,6 83 - -
08:09 3,7 1,1 5,0 ZZO 11,0 1014,5 83 - -
08:14 3,8 1,2 5,0 ZZO 11,0 1014,6 83 - -
08:19 3,7 1,1 5,0 ZZO 13,0 1014,6 83 - 5
08:24 3,7 1,1 5,0 ZZO 13,0 1014,7 83 - 7
08:29 3,7 1,1 5,0 Zuiden 13,0 1014,7 83 - 9
08:34 3,7 1,1 3,0 Zuiden 11,0 1014,8 83 - 11
08:39 3,7 1,1 3,0 Zuiden 11,0 1014,8 83 - 12
08:44 3,8 1,2 3,0 ZZO 11,0 1014,8 83 - 14
08:49 3,8 1,2 3,0 ZZO 11,0 1014,9 83 - 16
08:54 3,8 1,2 3,0 ZZO 11,0 1014,9 83 - 18
08:59 3,8 1,2 3,0 ZZO 10,0 1015,0 83 - 21
09:04 3,8 1,2 3,0 ZZO 8,0 1015,1 83 - 26
Dagelijkse Samenvatting Woensdag 25 november 2020
Tijd Temp. ( °C ) Dew pt. ( °C ) Wind ( km/h ) van Windvlaag ( km/h ) Luchtdruk ( hPa ) Humid.( % ) Rainrate ( cm ) Zonneschijn ( W/m2 )
Hoog6,1 3,3 11,0 ZZO ( 329/560 ) 23,0 1016,4 83 - 26
Gemiddeld4,5 1,8 5,1 ZZO #74/109 11,9 1015,1 82 - 14 #10/109
Laag3,7 1,1 2,0   6,0 1014,4 82 -  
Dagelijkse Tabular details for Woensdag 25 november 2020
Tijd Temp. ( °C ) Dew pt. ( °C ) Wind ( km/h ) van Windvlaag ( km/h ) Luchtdruk ( hPa ) Humid.( % ) Rainrate ( cm ) Zonneschijn ( W/m2 )
00:04 6,1 3,3 10,0 Zuiden 18,0 1016,3 82 - -
00:09 6,1 3,3 8,0 Zuiden 18,0 1016,4 82 - -
00:14 6,1 3,3 8,0 ZZO 15,0 1016,3 82 - -
00:19 5,9 3,1 6,0 ZZO 15,0 1016,2 82 - -
00:24 5,9 3,1 5,0 ZZO 11,0 1016,2 82 - -
00:29 5,8 2,9 5,0 ZZO 10,0 1016,1 82 - -
00:34 5,8 2,9 5,0 ZZO 10,0 1016,0 82 - -
00:39 5,7 2,9 5,0 ZZO 10,0 1016,0 82 - -
00:44 5,6 2,8 5,0 ZZO 10,0 1016,0 82 - -
00:49 5,6 2,8 3,0 ZZO 10,0 1016,0 82 - -
00:54 5,6 2,8 5,0 ZZO 11,0 1015,9 82 - -
00:59 5,4 2,6 5,0 ZZO 13,0 1015,9 82 - -
01:04 5,4 2,6 5,0 ZZO 13,0 1015,8 82 - -
01:09 5,3 2,5 5,0 ZZO 13,0 1015,8 82 - -
01:14 5,3 2,5 6,0 Zuiden 13,0 1015,8 82 - -
01:19 5,3 2,5 8,0 Zuiden 13,0 1015,8 82 - -
01:24 5,3 2,5 6,0 Zuiden 13,0 1015,7 82 - -
01:29 5,3 2,5 6,0 ZZO 13,0 1015,7 82 - -
01:34 5,3 2,5 5,0 ZZO 13,0 1015,5 82 - -
01:39 5,2 2,4 6,0 Zuiden 13,0 1015,5 82 - -
01:44 5,2 2,4 6,0 Zuiden 13,0 1015,5 82 - -
01:49 5,2 2,4 6,0 Zuiden 18,0 1015,4 82 - -
01:54 5,2 2,4 8,0 Zuiden 18,0 1015,3 82 - -
01:59 5,2 2,4 10,0 Zuiden 18,0 1015,4 82 - -
02:04 5,2 2,4 10,0 Zuiden 18,0 1015,4 82 - -
02:09 5,2 2,4 10,0 Zuiden 19,0 1015,4 82 - -
02:14 5,2 2,4 11,0 Zuiden 19,0 1015,4 82 - -
02:19 5,2 2,4 11,0 Zuiden 19,0 1015,4 82 - -
02:24 5,2 2,4 10,0 Zuiden 16,0 1015,3 82 - -
02:29 5,2 2,4 10,0 Zuiden 16,0 1015,4 82 - -
02:34 5,2 2,4 8,0 Zuiden 15,0 1015,4 82 - -
02:39 5,2 2,4 8,0 Zuiden 15,0 1015,3 82 - -
02:44 5,2 2,4 8,0 ZZO 15,0 1015,3 82 - -
02:49 5,2 2,4 6,0 ZZO 15,0 1015,2 82 - -
02:54 5,1 2,3 8,0 ZZO 23,0 1015,2 82 - -
02:59 5,1 2,3 8,0 ZZO 23,0 1015,2 82 - -
03:04 5,1 2,3 6,0 ZZO 23,0 1015,2 82 - -
03:09 5,1 2,3 5,0 ZZO 13,0 1015,1 82 - -
03:14 5,0 2,2 5,0 ZZO 10,0 1015,1 82 - -
03:19 4,9 2,1 5,0 ZZO 13,0 1015,1 82 - -
03:24 4,9 2,1 5,0 ZZO 13,0 1015,1 82 - -
03:29 4,9 2,1 5,0 ZZO 13,0 1015,1 82 - -
03:34 4,8 2,0 5,0 ZZO 13,0 1015,1 82 - -
03:39 4,8 2,0 5,0 Zuiden 11,0 1015,1 82 - -
03:44 4,7 1,9 6,0 Zuiden 13,0 1015,1 82 - -
03:49 4,7 1,9 8,0 Zuiden 13,0 1015,1 82 - -
03:54 4,7 1,9 8,0 Zuiden 13,0 1015,1 82 - -
03:59 4,6 1,8 6,0 Zuiden 13,0 1015,0 82 - -
04:04 4,6 1,8 6,0 Zuiden 11,0 1015,0 82 - -
04:09 4,5 1,7 6,0 Zuiden 11,0 1015,0 82 - -
04:14 4,5 1,7 6,0 ZZO 11,0 1015,0 82 - -
04:19 4,4 1,6 6,0 ZZO 11,0 1014,9 82 - -
04:24 4,4 1,6 6,0 ZZO 11,0 1014,9 82 - -
04:29 4,4 1,6 6,0 ZZO 11,0 1014,9 82 - -
04:34 4,3 1,5 5,0 ZZO 11,0 1014,8 82 - -
04:39 4,3 1,5 5,0 ZZO 11,0 1014,8 82 - -
04:44 4,3 1,5 5,0 ZZO 10,0 1014,8 82 - -
04:49 4,3 1,5 5,0 ZZO 10,0 1014,8 82 - -
04:54 4,3 1,5 5,0 ZZO 10,0 1014,8 82 - -
04:59 4,2 1,4 5,0 ZZO 10,0 1014,8 82 - -
05:04 4,2 1,4 5,0 ZZO 10,0 1014,8 82 - -
05:09 4,2 1,4 5,0 ZZO 10,0 1014,8 82 - -
05:14 4,2 1,4 5,0 Zuiden 10,0 1014,9 82 - -
05:19 4,2 1,4 3,0 Zuiden 10,0 1014,9 82 - -
05:24 4,2 1,4 3,0 Zuiden 6,0 1015,0 82 - -
05:29 4,1 1,3 3,0 ZZO 6,0 1014,9 82 - -
05:34 4,1 1,3 3,0 ZZO 6,0 1014,8 82 - -
05:39 4,1 1,3 2,0 ZZO 6,0 1014,8 82 - -
05:44 4,1 1,3 2,0 ZZO 6,0 1014,9 82 - -
05:49 4,1 1,3 2,0 ZZO 6,0 1014,9 82 - -
05:54 4,0 1,2 3,0 ZZO 8,0 1014,9 82 - -
05:59 3,9 1,1 3,0 ZZO 8,0 1014,9 82 - -
06:04 3,9 1,1 3,0 ZO 8,0 1014,9 82 - -
06:09 3,9 1,1 3,0 ZZO 10,0 1014,8 82 - -
06:14 3,9 1,1 3,0 ZZO 10,0 1014,8 82 - -
06:19 3,9 1,1 3,0 ZZO 10,0 1014,7 82 - -
06:24 3,8 1,2 3,0 ZZO 8,0 1014,7 83 - -
06:29 3,8 1,2 3,0 ZO 8,0 1014,6 83 - -
06:34 3,8 1,2 3,0 ZO 8,0 1014,6 83 - -
06:39 3,8 1,2 3,0 ZO 8,0 1014,6 83 - -
06:44 3,8 1,2 3,0 ZZO 8,0 1014,6 83 - -
06:49 3,8 1,2 3,0 ZZO 8,0 1014,6 83 - -
06:54 3,8 1,2 5,0 ZZO 10,0 1014,6 83 - -
06:59 3,8 1,2 5,0 ZZO 10,0 1014,6 83 - -
07:04 3,8 1,2 3,0 ZZO 10,0 1014,5 83 - -
07:09 3,8 1,2 3,0 ZZO 11,0 1014,6 83 - -
07:14 3,8 1,2 3,0 ZZO 11,0 1014,5 83 - -
07:19 3,8 1,2 3,0 ZZO 11,0 1014,5 83 - -
07:24 3,8 1,2 3,0 ZZO 11,0 1014,5 83 - -
07:29 3,8 1,2 3,0 ZZO 8,0 1014,5 83 - -
07:34 3,8 1,2 3,0 ZZO 8,0 1014,5 83 - -
07:39 3,8 1,2 3,0 ZZO 8,0 1014,4 83 - -
07:44 3,7 1,1 3,0 ZZO 8,0 1014,4 83 - -
07:49 3,7 1,1 3,0 ZZO 13,0 1014,4 83 - -
07:54 3,7 1,1 5,0 ZZO 13,0 1014,4 83 - -
07:59 3,7 1,1 5,0 ZZO 13,0 1014,6 83 - -
08:04 3,7 1,1 5,0 ZZO 11,0 1014,6 83 - -
08:09 3,7 1,1 5,0 ZZO 11,0 1014,5 83 - -
08:14 3,8 1,2 5,0 ZZO 11,0 1014,6 83 - -
08:19 3,7 1,1 5,0 ZZO 13,0 1014,6 83 - 5
08:24 3,7 1,1 5,0 ZZO 13,0 1014,7 83 - 7
08:29 3,7 1,1 5,0 Zuiden 13,0 1014,7 83 - 9
08:34 3,7 1,1 3,0 Zuiden 11,0 1014,8 83 - 11
08:39 3,7 1,1 3,0 Zuiden 11,0 1014,8 83 - 12
08:44 3,8 1,2 3,0 ZZO 11,0 1014,8 83 - 14
08:49 3,8 1,2 3,0 ZZO 11,0 1014,9 83 - 16
08:54 3,8 1,2 3,0 ZZO 11,0 1014,9 83 - 18
08:59 3,8 1,2 3,0 ZZO 10,0 1015,0 83 - 21
09:04 3,8 1,2 3,0 ZZO 8,0 1015,1 83 - 26

Download your copy of this data-set  here

Our weather-data as stored at Weather Underground. Script ontwikkeld door Jim McMurry. Aangepast voor de template door Leuven-Template.eu

Apparatuur in gebruik:

Weerstation
Davis VP2

Weerprogramma
Cumulus

Weercomputer
Gigabyte Brix

Webleverancier
GetHost

Davis VP2

Cumulus

Gigabyte Brix

GetHost